Stations météo

réclame
Mon MeteoGroup
Berlin-Schönefeld, Allemagne (10385): Température de l'air & dewpoint: 12.01.2019 12:00:00 - 18.01.2019 12:00:00 (CET)Berlin-Schönefeld, Allemagne (10385): Température de l'air 5cm & Température de l'air -5cm: 12.01.2019 12:00:00 - 18.01.2019 12:00:00 (CET)Berlin-Schönefeld, Allemagne (10385): Température de l'air -20cm & Température de l'air -100cm: 12.01.2019 12:00:00 - 18.01.2019 12:00:00 (CET)Berlin-Schönefeld, Allemagne (10385): Vitesse du vent & gusts: 12.01.2019 12:00:00 - 18.01.2019 12:00:00 (CET)Berlin-Schönefeld, Allemagne (10385): Direction du vent: 12.01.2019 12:00:00 - 18.01.2019 12:00:00 (CET)Berlin-Schönefeld, Allemagne (10385): reduced air pressure: 12.01.2019 12:00:00 - 18.01.2019 12:00:00 (CET)Berlin-Schönefeld, Allemagne (10385): visibility: 12.01.2019 12:00:00 - 18.01.2019 12:00:00 (CET)Berlin-Schönefeld, Allemagne (10385): Ensoleillement: 12.01.2019 12:00:00 - 18.01.2019 12:00:00 (CET)Berlin-Schönefeld, Allemagne (10385): Quantités de précipitations: 12.01.2019 12:00:00 - 18.01.2019 12:00:00 (CET)
Date & Time tt [°C] td [°C] tt 5cm [°C] tt -5cm [°C] tt -20cm [°C] tt -100cm [°C] ff [km/h] ff [knt] fx [km/h] fx [knt] dd ppp [hPa] vv [km] sd [min] rr [mm]
18.01.2019 12:00:00 1,0 -3,4 2,0 0,8 2,6 5,8 19 10 32 17 WNW 1017,6 55 60 0,0
18.01.2019 11:00:00 0,2 -3,4 -0,1 0,9 2,7 5,8 19 10 32 17 WNW 1017,4 55 60 0,0
18.01.2019 10:00:00 -0,6 -4,4 -0,3 0,9 2,8 5,8 24 13 35 19 WNW 1016,5 55 60 0,0
18.01.2019 09:00:00 -0,6 -4,5 -1,5 0,9 2,9 5,8 21 11 38 21 WNW 1015,1 55 11 0,0
18.01.2019 08:00:00 -0,3 -4,4 -0,9 0,9 2,9 5,8 21 11 40 22 NW 1013,3 10 0 0,0
18.01.2019 07:00:00 -0,1 -3,3 -1,0 1,0 3,1 5,7 18 10 34 18 NW 1011,9 10 0 0,0
18.01.2019 06:00:00 -0,1 -2,2 -0,5 1,1 3,2 5,7 18 10 29 16 WNW 1010,7 10 0 0,0
18.01.2019 05:00:00 -0,4 -2,5 -1,1 1,2 3,3 5,7 18 10 35 19 NW 1009,4 10 0 0,1
18.01.2019 04:00:00 -0,1 -2,5 -0,5 1,5 3,5 5,7 21 12 47 25 NW 1007,9 30 0 0,1
18.01.2019 03:00:00 0,7 0,0 0,4 2,0 3,6 5,7 24 13 38 21 W 1005,8 4,3 0 0,0
18.01.2019 02:00:00 1,4 0,0 0,9 2,3 3,7 5,7 29 15 41 22 W 1004,8 8 0 0,1
18.01.2019 01:00:00 1,3 0,5 0,8 2,5 3,8 5,7 22 12 41 22 WSW 1004,2 30 0 0,0
18.01.2019 00:00:00 2,3 0,6 1,7 2,6 3,8 5,7 28 15 46 25 WSW 1003,4 45 0 0,0
17.01.2019 23:00:00 2,6 1,4 2,1 2,8 3,9 5,7 26 14 46 25 W 1002,7 40 0 0,3
17.01.2019 22:00:00 2,6 1,9 2,2 3,0 4,0 5,7 25 13 33 18 WSW 1001,9 27 0 0,1
17.01.2019 21:00:00 2,6 1,9 2,3 3,0 4,0 5,7 21 11 32 17 WSW 1000,7 10 0 0,3
17.01.2019 20:00:00 2,6 1,7 2,2 3,0 4,1 5,7 23 12 34 18 W 999,6 20 0 3,0
17.01.2019 19:00:00 3,0 1,9 2,4 3,5 4,2 5,7 28 15 37 20 W 998,8 6 0 2,0
17.01.2019 18:00:00 4,6 2,3 3,7 3,2 4,3 5,7 13 7 22 12 SSW 998,5 55 0 0,0
17.01.2019 17:00:00 4,5 1,5 2,5 3,5 4,5 5,7 15 8 25 13 S 998,6 60 0 0,0
17.01.2019 16:00:00 5,6 1,3 4,1 4,3 4,5 5,7 18 10 36 20 SW 999,0 60 26 0,0
17.01.2019 15:00:00 6,9 0,5 6,6 5,0 4,4 5,7 29 16 45 24 WSW 999,0 10 54 0,0
17.01.2019 14:00:00 7,4 1,3 8,5 5,4 4,2 5,7 29 16 42 23 WSW 999,5 50 15 0,0
17.01.2019 13:00:00 7,1 1,9 7,6 5,3 4,1 5,7 26 14 38 21 WSW 999,9 10 10 0,0
17.01.2019 12:00:00 6,2 1,6 6,0 4,7 3,9 5,7 29 16 42 23 W 1000,3 10 0 0,0
17.01.2019 11:00:00 6,2 2,3 6,0 4,2 3,8 5,7 26 14 41 22 WSW 1000,7 10 0 0,0
17.01.2019 10:00:00 5,7 2,2 5,2 3,7 3,8 5,7 28 15 38 20 WSW 1000,0 40 0 0,0
17.01.2019 09:00:00 5,3 2,0 4,8 3,4 3,7 5,7 26 14 40 21 WSW 999,5 10 0 0,0
17.01.2019 08:00:00 5,3 1,6 4,7 3,2 3,7 5,7 29 16 42 23 WSW 999,0 10 0 0,0
17.01.2019 07:00:00 5,0 1,3 4,4 3,0 3,7 5,7 30 16 43 23 WSW 998,6 45 0 0,0
17.01.2019 06:00:00 4,6 0,8 4,0 2,8 3,7 5,7 29 16 42 23 WSW 998,6 10 0 0,0
17.01.2019 05:00:00 4,4 0,5 3,8 2,6 3,7 5,7 28 15 39 21 SW 998,5 40 0 0,0
17.01.2019 04:00:00 3,6 0,4 2,9 2,2 3,8 5,7 18 10 29 15 SSW 999,0 10 0 0,0
17.01.2019 03:00:00 3,3 0,1 2,0 2,2 4,0 5,7 21 11 29 15 SSW 999,4 40 0 0,0
17.01.2019 02:00:00 2,8 0,1 1,7 2,3 4,1 5,7 20 11 27 15 SSW 999,9 40 0 0,0
17.01.2019 01:00:00 2,9 0,1 1,7 2,5 4,3 5,7 18 10 28 15 SSW 1000,4 10 0 0,0
17.01.2019 00:00:00 3,3 0,2 1,9 3,0 4,4 5,7 21 11 29 16 SSW 1001,5 10 0 0,0
16.01.2019 23:00:00 4,1 0,6 3,0 3,6 4,5 5,7 22 12 34 18 SW 1002,2 10 0 0,0
16.01.2019 22:00:00 4,9 1,2 4,3 4,0 4,6 5,7 22 12 35 19 SSW 1003,1 10 0 0,0
16.01.2019 21:00:00 5,3 1,0 4,6 4,2 4,7 5,7 22 12 40 22 SW 1003,6 10 0 0,0
16.01.2019 20:00:00 5,6 1,1 5,0 4,4 4,7 5,7 28 15 40 22 SW 1004,2 10 0 0,0
16.01.2019 19:00:00 6,0 2,2 5,4 4,6 4,7 5,7 24 13 43 23 SW 1004,7 10 0 0,0
16.01.2019 18:00:00 6,3 2,8 5,7 4,8 4,8 5,7 28 15 40 22 SW 1005,0 10 0 0,0
16.01.2019 17:00:00 6,5 3,3 5,8 5,0 4,8 5,7 28 15 36 20 SW 1005,7 10 0 0,0
16.01.2019 16:00:00 6,6 3,7 6,1 5,2 4,7 5,7 26 14 35 19 SW 1006,1 50 0 0,0
16.01.2019 15:00:00 6,6 3,8 6,3 5,3 4,7 5,7 25 14 39 21 SW 1006,3 50 0 0,0
16.01.2019 14:00:00 6,8 3,9 6,5 5,3 4,6 5,7 29 16 41 22 SW 1006,9 10 0 0,0
16.01.2019 13:00:00 6,7 4,0 6,4 5,2 4,6 5,7 26 14 36 20 SW 1007,6 10 0 0,0
16.01.2019 12:00:00 6,3 4,0 5,9 5,0 4,5 5,7 28 15 37 20 SW 1008,2 45 0 0,0
16.01.2019 11:00:00 5,9 4,3 5,3 4,9 4,5 5,7 28 15 37 20 SW 1008,8 10 0 0,0
16.01.2019 10:00:00 6,2 4,3 5,7 4,9 4,5 5,7 23 13 31 17 WSW 1008,8 25 0 0,0
16.01.2019 09:00:00 6,1 4,1 5,3 4,8 4,5 5,7 22 12 34 18 WSW 1008,8 25 0 0,0
16.01.2019 08:00:00 6,4 3,9 5,7 4,8 4,4 5,7 26 14 40 22 W 1008,6 25 0 0,0
16.01.2019 07:00:00 6,7 4,3 5,9 5,0 4,4 5,7 32 17 46 25 W 1008,2 25 0 0,1
16.01.2019 06:00:00 6,7 5,3 5,8 5,1 4,3 5,7 26 14 38 21 W 1008,4 15 0 0,3
16.01.2019 05:00:00 6,7 5,7 5,9 5,2 4,3 5,7 26 14 48 26 W 1008,6 14 0 0,2
16.01.2019 04:00:00 7,2 5,4 6,7 5,1 4,2 5,7 29 16 59 32 W 1008,4 10 0 0,0
16.01.2019 03:00:00 7,2 5,5 6,7 5,0 4,1 5,7 35 19 53 28 W 1008,0 10 0 0,0
16.01.2019 02:00:00 6,8 5,2 6,3 4,8 4,0 5,7 34 18 51 27 W 1007,3 30 0 0,0
16.01.2019 01:00:00 6,6 5,2 6,1 4,7 3,9 5,7 35 19 50 27 W 1007,3 10 0 0,0
16.01.2019 00:00:00 6,5 5,4 5,8 4,7 3,8 5,7 35 19 48 26 W 1007,4 15 0 0,4
15.01.2019 23:00:00 6,3 5,5 5,7 4,6 3,6 5,7 34 18 54 29 W 1007,7 6 0 0,5
15.01.2019 22:00:00 6,2 5,4 5,6 4,4 3,5 5,7 37 20 62 34 W 1007,4 6 0 0,0
15.01.2019 21:00:00 6,1 5,3 5,4 4,2 3,4 5,7 40 21 57 31 W 1007,0 8 0 0,1
15.01.2019 20:00:00 6,3 4,8 5,4 4,0 3,2 5,7 39 21 57 31 W 1006,6 10 0 0,0
15.01.2019 19:00:00 6,2 4,5 5,4 3,7 3,1 5,8 39 21 58 31 W 1006,4 10 0 0,0
15.01.2019 18:00:00 5,5 4,2 4,8 3,5 3,0 5,8 35 19 51 27 W 1007,1 10 0 0,0
15.01.2019 17:00:00 5,2 4,0 4,4 3,2 2,9 5,8 34 18 48 26 W 1007,4 10 0 0,1
15.01.2019 16:00:00 4,2 3,5 3,7 3,0 2,7 5,8 28 15 40 21 WSW 1007,9 8 0 0,2
15.01.2019 15:00:00 3,8 3,1 3,4 2,9 2,6 5,8 28 15 41 22 WSW 1008,1 10 0 0,1
15.01.2019 14:00:00 4,2 2,4 3,5 2,8 2,4 5,8 26 14 49 27 W 1009,1 10 0 0,0
15.01.2019 13:00:00 3,9 1,8 3,4 2,4 2,3 5,8 28 15 48 26 W 1009,5 10 0 0,0
15.01.2019 12:00:00 3,1 1,3 2,6 1,6 2,2 5,8 31 17 53 29 W 1010,0 10 0 0,1
15.01.2019 11:00:00 3,0 0,6 2,6 0,7 2,2 5,8 35 19 61 33 W 1010,3 40 0 0,0
15.01.2019 10:00:00 3,2 -0,2 2,6 0,7 2,2 5,8 37 20 54 29 W 1010,1 10 0 0,0
15.01.2019 09:00:00 3,3 -0,8 2,6 0,7 2,3 5,8 35 19 57 31 W 1010,2 10 0 0,0
15.01.2019 08:00:00 3,3 -0,9 2,6 0,7 2,3 5,8 34 18 54 29 W 1010,4 40 0 0,0
15.01.2019 07:00:00 3,0 -0,7 2,2 0,7 2,3 5,8 31 17 49 27 W 1010,4 10 0 0,0
15.01.2019 06:00:00 2,2 -1,0 1,6 0,7 2,4 5,8 29 16 44 24 W 1010,9 30 0 0,0
15.01.2019 05:00:00 1,8 -1,6 0,9 0,7 2,4 5,8 34 18 46 25 W 1010,6 10 0 0,0
15.01.2019 04:00:00 2,5 -1,8 1,9 0,7 2,4 5,8 34 18 54 29 W 1010,5 10 0 0,0
15.01.2019 03:00:00 2,3 -2,0 1,5 0,7 2,5 5,8 32 17 53 29 WNW 1010,1 30 0 0,0
15.01.2019 02:00:00 2,1 -1,9 1,5 0,7 2,5 5,8 35 19 55 30 WNW 1009,6 35 0 0,0
15.01.2019 01:00:00 1,3 -2,6 0,5 0,7 2,6 5,8 34 19 48 26 W 1009,3 35 0 0,0
15.01.2019 00:00:00 0,8 -2,8 0,2 0,7 2,6 5,8 28 15 44 24 W 1009,3 10 0 0,0
14.01.2019 23:00:00 0,6 -3,0 0,1 0,8 2,7 5,8 35 19 48 26 W 1009,2 40 0 0,0
14.01.2019 22:00:00 0,9 -3,3 -0,1 0,8 2,8 5,8 34 18 47 25 W 1008,8 10 0 0,0
14.01.2019 21:00:00 1,1 -3,7 0,3 0,8 2,9 5,8 31 17 51 28 WNW 1008,4 40 0 0,0
14.01.2019 20:00:00 1,0 -4,7 0,0 0,9 2,9 5,8 34 18 48 26 WNW 1007,7 10 0 0,0
14.01.2019 19:00:00 1,0 -4,9 0,0 1,0 3,1 5,8 34 18 46 25 WNW 1007,1 10 0 0,0
14.01.2019 18:00:00 1,3 -5,5 0,3 1,1 3,2 5,8 30 16 48 26 WNW 1006,4 50 0 0,0
14.01.2019 17:00:00 1,7 -6,1 0,7 1,2 3,3 5,8 33 18 54 29 WNW 1005,4 50 0 0,0
14.01.2019 16:00:00 1,8 -4,9 0,9 1,4 3,4 5,8 36 20 66 35 NW 1004,0 45 17 0,0
14.01.2019 15:00:00 0,7 -4,6 0,7 2,1 3,5 5,8 37 20 67 36 N 1002,8 10 5 0,0
14.01.2019 14:00:00 2,9 -6,1 2,5 2,1 3,5 5,8 37 20 71 38 WNW 1001,2 10 0 0,0
14.01.2019 13:00:00 3,3 -5,4 3,4 2,4 3,5 5,8 44 24 68 37 WNW 1000,8 10 26 0,0
14.01.2019 12:00:00 3,0 -4,1 2,7 2,0 3,6 5,8 37 20 64 34 WNW 1000,5 45 54 0,0
14.01.2019 11:00:00 3,0 -4,4 2,5 1,7 3,7 5,8 35 19 60 32 WNW 1000,5 10 54 0,0
14.01.2019 10:00:00 2,5 -3,5 1,9 1,6 3,9 5,8 37 20 60 32 WNW 999,8 10 1 0,0
14.01.2019 09:00:00 2,5 -3,4 1,8 1,7 4,1 5,8 31 17 64 35 WNW 998,8 40 0 0,0
14.01.2019 08:00:00 2,8 -2,5 2,1 1,9 4,3 5,7 35 19 59 32 WNW 997,4 10 0 0,0
14.01.2019 07:00:00 3,2 -3,1 2,5 2,3 4,5 5,7 34 18 66 36 WNW 996,5 40 0 0,0
14.01.2019 06:00:00 3,5 -2,6 2,6 3,2 4,6 5,7 44 24 64 35 WNW 995,7 10 0 0,0
14.01.2019 05:00:00 4,5 -0,4 3,9 3,5 4,7 5,7 41 22 62 34 WNW 994,6 10 0 0,0
14.01.2019 04:00:00 4,8 0,2 4,2 3,8 4,9 5,7 39 21 66 35 WNW 992,9 10 0 0,0
14.01.2019 03:00:00 5,0 0,6 4,4 4,0 5,0 5,7 39 21 66 35 WNW 991,3 10 0 0,0
14.01.2019 02:00:00 5,0 0,9 3,2 4,4 5,1 5,7 39 21 72 39 NW 990,0 10 0 0,1
14.01.2019 01:00:00 6,1 2,0 5,2 4,7 5,1 5,7 41 22 59 32 WNW 988,5 40 0 0,0
14.01.2019 00:00:00 6,5 3,5 5,8 5,1 5,2 5,7 39 21 61 33 W 987,7 10 0 0,0
13.01.2019 23:00:00 6,5 3,9 5,5 5,2 5,2 5,7 38 21 59 32 W 987,7 30 0 0,3
13.01.2019 22:00:00 6,5 3,8 6,0 5,3 5,3 5,7 34 18 61 33 WNW 987,7 10 0 0,0
13.01.2019 21:00:00 7,2 4,3 6,5 5,7 5,3 5,7 41 22 60 32 WNW 987,2 10 0 0,0
13.01.2019 20:00:00 7,6 5,2 6,5 5,9 5,2 5,7 35 19 72 39 W 986,8 10 0 1,4
13.01.2019 19:00:00 8,1 7,2 7,2 6,1 5,1 5,7 33 18 44 24 W 987,1 16 0 0,2
13.01.2019 18:00:00 8,1 7,0 7,4 6,0 5,0 5,7 26 14 39 21 WSW 988,4 50 0 0,1
13.01.2019 17:00:00 7,9 7,3 7,2 5,9 5,0 5,7 30 16 42 23 W 990,0 9 0 0,0
13.01.2019 16:00:00 7,3 6,8 6,8 5,7 4,9 5,7 28 15 40 21 W 990,9 10 0 0,2
13.01.2019 15:00:00 6,4 6,0 6,0 5,6 4,8 5,7 26 14 44 24 WSW 991,9 10 0 0,3
13.01.2019 14:00:00 6,1 5,6 5,8 5,6 4,7 5,7 31 17 47 25 WSW 993,2 4,9 0 0,9
13.01.2019 13:00:00 6,0 5,3 5,7 5,5 4,7 5,7 34 18 45 24 WSW 995,1 4,9 0 0,8
13.01.2019 12:00:00 6,2 5,2 5,7 5,3 4,6 5,7 31 17 42 23 WSW 996,8 10 0 0,8
13.01.2019 11:00:00 6,1 5,2 5,6 5,0 4,5 5,7 28 15 37 20 WSW 998,7 11 0 0,4
13.01.2019 10:00:00 6,2 4,8 5,6 4,8 4,5 5,7 24 13 36 19 W 999,9 10 0 0,0
13.01.2019 09:00:00 6,0 4,5 5,3 4,6 4,4 5,6 28 15 38 20 W 1000,7 10 0 0,0
13.01.2019 08:00:00 5,5 4,7 4,9 4,5 4,4 5,6 24 13 36 19 WSW 1001,3 30 0 0,0
13.01.2019 07:00:00 5,4 4,8 4,9 4,5 4,4 5,6 22 12 36 20 W 1001,7 10 0 0,1
13.01.2019 06:00:00 5,3 4,8 4,8 4,5 4,4 5,6 22 12 42 23 W 1001,9 10 0 0,2
13.01.2019 05:00:00 5,2 4,7 4,8 4,5 4,4 5,6 23 13 34 18 W 1002,4 10 0 0,2
13.01.2019 04:00:00 5,5 3,9 5,0 4,4 4,4 5,6 22 12 46 25 W 1002,6 10 0 0,0
13.01.2019 03:00:00 5,8 3,7 5,2 4,5 4,3 5,6 32 18 49 27 W 1002,5 50 0 0,3
13.01.2019 02:00:00 5,7 4,2 5,0 4,5 4,3 5,6 31 17 44 24 W 1002,5 10 0 0,1
13.01.2019 01:00:00 5,8 4,1 4,9 4,5 4,3 5,6 31 17 42 23 W 1002,6 10 0 0,0
13.01.2019 00:00:00 5,7 4,5 5,0 4,5 4,3 5,6 26 14 44 24 W 1003,1 10 0 0,2
12.01.2019 23:00:00 5,8 4,6 5,0 4,5 4,2 5,6 29 16 40 22 W 1003,5 14 0 0,1
12.01.2019 22:00:00 5,9 4,5 5,3 4,4 4,2 5,6 26 14 41 22 W 1003,8 50 0 0,0
12.01.2019 21:00:00 5,6 4,5 4,9 4,3 4,2 5,6 23 12 37 20 W 1004,3 50 0 0,2
12.01.2019 20:00:00 5,1 4,5 4,6 4,3 4,2 5,6 24 13 41 22 W 1004,9 12 0 0,2
12.01.2019 19:00:00 4,6 4,0 4,2 4,2 4,2 5,6 29 16 48 26 WSW 1004,8 8 0 0,6
12.01.2019 18:00:00 4,6 4,0 4,1 4,3 4,2 5,6 29 15 38 21 WSW 1005,6 6 0 0,3
12.01.2019 17:00:00 4,7 4,1 4,2 4,4 4,2 5,6 29 16 42 23 WSW 1006,6 6 0 0,2
12.01.2019 16:00:00 5,0 3,6 4,3 4,6 4,1 5,6 29 16 41 22 WSW 1007,8 12 0 0,4
12.01.2019 15:00:00 6,0 2,9 5,7 5,0 4,0 5,6 27 15 42 23 W 1008,7 30 0 0,0
12.01.2019 14:00:00 5,9 3,7 5,4 5,1 3,9 5,6 32 17 48 26 W 1009,7 30 0 0,0
12.01.2019 13:00:00 6,0 4,2 5,3 4,9 3,7 5,6 31 17 50 27 W 1011,0 10 0 0,1
12.01.2019 12:00:00 5,9 4,7 5,4 4,6 3,6 5,6 26 14 42 23 W 1011,9 10 0 0,1

tt = Température de l'air
td = dewpoint
tt 5cm = Température de l'air 5cm
tt -5cm = Température de l'air -5cm
tt -20cm = Température de l'air -20cm
tt -100cm = Température de l'air -100cm
ff = Vitesse du vent
fx = gusts
dd = Direction du vent
ppp = reduced air pressure
vv = visibility
sd = Ensoleillement
rr = Quantités de précipitations

stations d'obs. à proximité